Regional Weather Roundup
Issued by NWS Charleston, WV

Home | Current Version | Previous Version | Text Only | Print | Product List | Glossary On
Versions: 1 2 3 4 5 6 7 8 9 10 11 12 13 14 15 16 17 18 19 20 21 22 23 24 25 26 27 28 29 30 31 32 33 34 35 36 37 38 39 40 41 42 43 44 45 46 47 48 49 50
000
ASUS41 KRLX 281110
RWRRLX
West Virginia Regional Weather Roundup
National Weather Service Charleston WV
700 AM EDT SAT MAR 28 2015

Note: "fair" indicates few or no clouds below 12,000 feet with no
significant weather and/or obstructions to visibility.

WVZ003-281200-
Northern Panhandle of West Virginia

CITY           SKY/WX    TMP DP  RH WIND       PRES   REMARKS
WHEELING       CLOUDY    15   6  67 NW8       30.06R WCI   4
$$

WVZ009-281200-
Northwest West Virginia

CITY           SKY/WX    TMP DP  RH WIND       PRES   REMARKS
PARKERSBURG    CLEAR     18   6  59 NW7       30.15R WCI   9
$$

WVZ006-281200-
Western West Virginia

CITY           SKY/WX    TMP DP  RH WIND       PRES   REMARKS
HUNTINGTON     PTCLDY    22  11  62 N10       30.13R
$$

WVZ015-281200-
West Central West Virginia

CITY           SKY/WX    TMP DP  RH WIND       PRES   REMARKS
CHARLESTON     PTCLDY    23  11  60 NW9       30.09R
$$

WVZ022-031-281200-
North Central West Virginia

CITY           SKY/WX    TMP DP  RH WIND       PRES   REMARKS
CLARKSBURG     CLEAR     18   4  54 NW12      30.04R WCI   5
MORGANTOWN     PTCLDY    16   3  56 N10       30.05R WCI   4
$$

WVZ025-035-042-045-281200-
Southern West Virginia

CITY           SKY/WX    TMP DP  RH WIND       PRES   REMARKS
BECKLEY        PTCLDY    18   3  52 NW14      29.96R WCI   4
LOGAN          CLOUDY    23   3  42 NW7G14    30.02R
BLUEFIELD      CLOUDY    20  10  65 NW8       29.94R
LEWISBURG      CLOUDY    21   9  58 NW8       29.95R
$$

WVZ047-281200-
Northern Mountains of West Virginia

CITY           SKY/WX    TMP DP  RH WIND       PRES   REMARKS
ELKINS         LGT SNOW  17  10  74 N8        29.96R WCI   7
$$

WVZ052-281200-
Eastern Panhandle of West Virginia

CITY           SKY/WX    TMP DP  RH WIND       PRES   REMARKS
MARTINSBURG    CLEAR     25   7  46 NW12G22   29.97R
PETERSBURG     MOCLDY    22   5  47 N8        30.01R
$$



USA.gov is the U.S. government's official web portal to all federal, state and local government web resources and services.